GW0458 Weather Reports


time (UTC)temp
C
wind
direction
speed
KPH
gust
KPH
rain 1hr
cm
rain 24hr
cm
rain mn
cm
humidity
%
barometer
mb
20260505041606 16 200 0.0 0.0 0.00 0.00 0.00 78 1018.4
20260505034605 17 201 0.0 0.0 0.00 0.00 0.00 74 1018.0
20260505031600 20 213 0.0 0.0 0.00 0.00 0.00 67 1017.3
20260505024558 21 205 0.0 0.0 0.00 0.00 0.00 66 1016.9
20260505021553 22 208 0.0 0.0 0.00 0.00 0.00 62 1016.9
20260505014549 23 206 0.0 0.0 0.00 0.00 0.00 57 1016.5
20260505011548 24 206 0.0 0.0 0.00 0.00 0.00 55 1016.7
20260505004546 25 219 0.0 1.6 0.00 0.00 0.00 48 1016.8
20260505001545 25 216 1.6 1.6 0.00 0.00 0.00 47 1016.9
20260504234545 25 208 0.0 1.6 0.00 0.00 0.00 44 1017.1
20260504231543 25 206 1.6 1.6 0.00 0.00 0.00 41 1017.1
20260504224542 26 205 0.0 0.0 0.00 0.00 0.00 39 1017.5
20260504221542 26 204 1.6 1.6 0.00 0.00 0.00 38 1018.0
20260504214538 26 212 0.0 1.6 0.00 0.00 0.00 40 1018.3
20260504211537 26 217 1.6 1.6 0.00 0.00 0.00 40 1018.1
20260504204532 26 201 0.0 0.0 0.00 0.00 0.00 43 1018.4
20260504201527 25 210 0.0 0.0 0.00 0.00 0.00 43 1018.1
20260504194525 26 217 1.6 1.6 0.00 0.00 0.00 44 1018.7
20260504191521 26 211 0.0 0.0 0.00 0.00 0.00 44 1018.7
20260504184521 25 214 1.6 1.6 0.00 0.00 0.00 47 1018.7
20260504181521 25 222 1.6 1.6 0.00 0.00 0.00 48 1018.9
20260504174519 23 215 0.0 1.6 0.00 0.00 0.00 51 1019.1
20260504171517 23 195 1.6 1.6 0.00 0.00 0.00 53 1018.8
20260504081435 13 191 1.6 1.6 0.00 0.00 0.00 86 1016.8